STARLINK-11556, 62838

Orbit data source: Space-Track

STARLINK-11556, 62838 is a payload satellite owned by SpaceX/Seattle (US) in LEO that was launched on Mon, 27 Jan 2025 UTC via an FALCON 9 launch vehicle from the Air Force Eastern Test Range (AFETR). Payload-class satellites include a variety of spacecraft equipped with specific instruments for various scientific and technological missions. These include communications satellites like Starlink; space stations such as the ISS; scientific satellites like the Hubble; Earth observation satellites from companies like Planet Labs, Umbra, and HawkEye 360; GPS; miniature CubeSats for education and research; and military/defense satellites.

Loading next visibility...
Identifier
62838, 2025-019K
Orbit
LEO
Country
Flag of USUS
Related business
Manufacturer
SpaceX/Seattle
Mission
Operational Commercial Communications
Bus & Motor
STARLINK V2MD, Unknown motor
Mass
960 kg wet, ~910 kg dry
Launch date (UTC)
2025-01-27 (11 months ago)
Launch vehicle
FALCON 9
Launch site
Air Force Eastern Test Range (AFETR)
Object type
Payload
Rocket body
Debris
Shape & HBR
Box + 2 Pan, 18.1 m
Radar Cross Section
36.964 m², Large (>1 m²)

Expand to show TLE details & history
Last TLE update: 1 day ago

TLE from 1 day ago
0 STARLINK-11556
1 62838U 25019K   25347.34770575  .00558379  00000-0  40172-2 0  9996
2 62838  42.9987 106.2206 0003045 253.5115 106.5418 15.71150405 50301
Epoch: 2025-12-13T08:20Z
TLE epoch observation values (Epoch: 2025-12-13T08:20:41.776Z)
Latitude
-0.00005°
Longitude
-101.22979°
Altitude
355.963 km
Speed
7.697 km/s
True Right ascension
07h 04m 52s
True Declination
0° 00' 00"
Sunlit
Object was in full shadow at epoch
Visualization orbit readout
Latitude
Unknown
Longitude
Unknown
Altitude
Unknown
Speed
Unknown
Apparent Right ascension
Unknown
Apparent Declination
Unknown
Sunlit
N/A
Visualization observer readout
Local Sidereal Time
10:59:22
Azimuth
Unknown
Elevation
Unknown
Doppler factor
Unknown
Orbital elements
Apogee altitude
359.641 km
Perigee altitude
355.539 km
Semi-major axis
6,735.727 km
Eccentricity
0.0003
Inclination
42.9987°
RAAN
106.2206°
Arg. of periapsis
253.5115°
True anomaly
106.57525°
Mean anomaly
106.5418°
Eccentric anomaly
106.55852°
Mean motion
3.92615 °/min
Orbital period
91.69 mins
BSTAR
0.0040172
Loading maneuver chart data...
Computing Atmospheric mass density...
Loading historical data...
Loading historical data...
Loading historical data...
Loading historical data...
Loading historical data...
Loading historical data...
Loading historical data...

Documentation

Showing up to 5 results
|